BCS448 EDDK-LEVT

Flight info

Callsign BCS448
Flight time 1h 49m
Altitude 38000
Route NVO2Q NVO Y868 NAVAK Z283 LNO DCT RASCA DCT FAMEN/N0459F350 DCT AHVEC/N0461F310 UN857 DISAK DCT ARKIP DCT ARNAV DCT LMG DCT UVELI DCT OSMOB DCT VAVIX/N0402F210 DCT BTZ DCT URUNA P181 SSN L176 CEGAM
Aircraft B738/M-SDE2E3FGHIRWXY/LB1

Departure

Time 2026-05-04 06:05
Airport Cologne Bonn Airport (EDDK)

Arrival

Time 2026-05-04 07:54
Airport Vitoria Airport (LEVT)
Time Latitude Longitude Altitude Speed Heading
2026-05-04 05:49 50.87934 7.12461 237 ft 0 kts 260°
2026-05-04 05:57 50.87936 7.12473 238 ft 2 kts 253°
2026-05-04 05:57 50.87941 7.12497 238 ft 2 kts 245°
2026-05-04 05:57 50.87948 7.12520 238 ft 2 kts 234°
2026-05-04 05:58 50.87960 7.12537 238 ft 2 kts 202°
2026-05-04 05:58 50.87972 7.12540 238 ft 2 kts 155°
2026-05-04 05:58 50.87976 7.12536 238 ft 0 kts 140°
2026-05-04 06:03 50.87999 7.12768 235 ft 4 kts 69°
2026-05-04 06:03 50.88009 7.12846 237 ft 11 kts 85°
2026-05-04 06:05 50.84035 7.18433 2296 ft 183 kts 142°
2026-05-04 06:05 50.81920 7.21417 2990 ft 218 kts 139°
2026-05-04 06:05 50.80746 7.23097 3295 ft 233 kts 139°
2026-05-04 06:06 50.79478 7.24733 3823 ft 239 kts 153°
2026-05-04 06:06 50.77885 7.25183 4522 ft 235 kts 193°
2026-05-04 06:06 50.76421 7.24159 5331 ft 231 kts 215°
2026-05-04 06:06 50.75255 7.22427 6047 ft 233 kts 239°
2026-05-04 06:07 50.74785 7.20009 6792 ft 232 kts 266°
2026-05-04 06:07 50.74939 7.17465 7479 ft 238 kts 281°
2026-05-04 06:07 50.75327 7.14839 7752 ft 259 kts 280°
2026-05-04 06:07 50.75723 7.12012 8356 ft 266 kts 280°
2026-05-04 06:08 50.76126 7.09145 9142 ft 268 kts 280°
2026-05-04 06:08 50.76528 7.06269 9946 ft 269 kts 279°
2026-05-04 06:08 50.76934 7.03341 10412 ft 282 kts 279°
2026-05-04 06:08 50.77365 7.00196 10583 ft 304 kts 279°
2026-05-04 06:09 50.77825 6.96821 10745 ft 324 kts 279°
2026-05-04 06:09 50.78313 6.93239 10894 ft 344 kts 279°
2026-05-04 06:11 50.82060 6.65505 14571 ft 382 kts 279°
2026-05-04 06:11 50.82499 6.61409 15150 ft 384 kts 272°
2026-05-04 06:13 50.82652 6.31123 19049 ft 404 kts 269°
2026-05-04 06:14 50.82884 6.04093 21913 ft 418 kts 268°
2026-05-04 06:14 50.82879 5.99492 22350 ft 419 kts 263°
2026-05-04 06:15 50.82207 5.95047 22711 ft 415 kts 242°
2026-05-04 06:15 50.80597 5.91392 23227 ft 412 kts 227°
2026-05-04 06:15 50.78534 5.88237 23684 ft 413 kts 219°
2026-05-04 06:15 50.76094 5.85805 24006 ft 416 kts 209°
2026-05-04 06:16 50.73514 5.83701 24342 ft 419 kts 208°
2026-05-04 06:16 50.70933 5.81580 24702 ft 419 kts 209°
2026-05-04 06:16 50.68359 5.79416 25059 ft 420 kts 210°
2026-05-04 06:16 50.65779 5.77203 25378 ft 422 kts 210°
2026-05-04 06:17 50.63204 5.74978 25680 ft 424 kts 210°
2026-05-04 06:17 50.60627 5.72673 25987 ft 425 kts 214°
2026-05-04 06:17 50.58304 5.69911 26287 ft 426 kts 221°
2026-05-04 06:17 50.56199 5.66620 26586 ft 427 kts 230°
2026-05-04 06:18 50.54347 5.62959 26878 ft 429 kts 231°
2026-05-04 06:18 50.52478 5.59306 27225 ft 428 kts 230°
2026-05-04 06:18 50.50594 5.55696 27712 ft 425 kts 230°
2026-05-04 06:20 50.37646 5.31210 30692 ft 413 kts 230°
2026-05-04 06:20 50.35809 5.27749 30980 ft 413 kts 230°
2026-05-04 06:21 50.28490 5.14000 32258 ft 409 kts 230°
2026-05-04 06:21 50.26696 5.10641 32605 ft 408 kts 230°
2026-05-04 06:22 50.24880 5.07245 32895 ft 407 kts 230°
2026-05-04 06:22 50.23060 5.03846 33203 ft 407 kts 230°
2026-05-04 06:25 49.99308 4.60005 35891 ft 412 kts 229°
2026-05-04 06:25 49.97455 4.56629 36041 ft 413 kts 228°
2026-05-04 06:26 49.95556 4.53359 36218 ft 413 kts 226°
2026-05-04 06:26 49.93569 4.50100 36321 ft 415 kts 225°
2026-05-04 06:26 49.91568 4.46877 36471 ft 416 kts 225°
2026-05-04 06:26 49.89554 4.43646 36649 ft 416 kts 225°
2026-05-04 06:27 49.81487 4.30632 37217 ft 420 kts 225°
2026-05-04 06:28 49.79494 4.27406 37357 ft 421 kts 225°
2026-05-04 06:28 49.77470 4.24134 37477 ft 422 kts 225°
2026-05-04 06:28 49.75436 4.20847 37623 ft 422 kts 225°
2026-05-04 06:28 49.73400 4.17561 37761 ft 423 kts 225°
2026-05-04 06:29 49.71362 4.14277 37890 ft 424 kts 225°
2026-05-04 06:29 49.69320 4.10991 37962 ft 425 kts 225°
2026-05-04 06:29 49.65203 4.04378 37964 ft 427 kts 225°
2026-05-04 06:30 49.61122 3.97840 37965 ft 425 kts 225°
2026-05-04 06:30 49.57024 3.91292 37967 ft 424 kts 225°
2026-05-04 06:31 49.52924 3.84758 37965 ft 423 kts 225°
2026-05-04 06:31 49.48834 3.78256 37968 ft 422 kts 225°
2026-05-04 06:33 49.32489 3.52439 37965 ft 424 kts 225°
2026-05-04 06:34 49.28396 3.46014 37966 ft 425 kts 225°
2026-05-04 06:34 49.24264 3.39546 37960 ft 425 kts 225°
2026-05-04 06:36 49.07659 3.13713 37967 ft 428 kts 225°
2026-05-04 06:37 49.03474 3.07244 37978 ft 428 kts 225°
2026-05-04 06:37 48.99290 3.00791 37964 ft 428 kts 225°
2026-05-04 06:38 48.95133 2.94398 37961 ft 427 kts 225°
2026-05-04 06:40 48.79174 2.68137 37973 ft 423 kts 235°
2026-05-04 06:40 48.75896 2.60739 38001 ft 423 kts 234°
2026-05-04 06:41 48.72570 2.53385 37979 ft 423 kts 234°
2026-05-04 06:41 48.69225 2.46055 37976 ft 423 kts 234°
2026-05-04 06:42 48.65871 2.38725 37957 ft 424 kts 234°
2026-05-04 06:44 48.48863 2.16448 37972 ft 426 kts 193°
2026-05-04 06:44 48.43045 2.14707 37971 ft 428 kts 193°
2026-05-04 06:45 48.37211 2.12865 37944 ft 429 kts 194°
2026-05-04 06:45 48.31377 2.10990 37950 ft 428 kts 193°
2026-05-04 06:46 48.25455 2.10487 37946 ft 433 kts 176°
2026-05-04 06:46 48.19494 2.11898 37942 ft 433 kts 175°
2026-05-04 06:48 47.99062 2.10437 37961 ft 419 kts 189°
2026-05-04 06:48 47.96176 2.09884 37966 ft 418 kts 189°
2026-05-04 06:50 47.73160 2.05479 37947 ft 418 kts 189°
2026-05-04 06:51 47.67379 2.04377 37956 ft 419 kts 189°
2026-05-04 06:51 47.61666 2.02782 37939 ft 417 kts 201°
2026-05-04 06:52 47.56302 1.99538 37942 ft 417 kts 203°
2026-05-04 06:52 47.50931 1.96401 37952 ft 418 kts 202°
2026-05-04 06:53 47.45500 1.93268 37953 ft 419 kts 202°
2026-05-04 06:53 47.40063 1.90133 37954 ft 420 kts 202°
2026-05-04 06:54 47.34618 1.86995 37960 ft 420 kts 202°
2026-05-04 06:54 47.29221 1.83890 37964 ft 419 kts 202°
2026-05-04 06:55 47.23785 1.80769 37962 ft 419 kts 202°
2026-05-04 06:55 47.18354 1.77668 37966 ft 418 kts 202°
2026-05-04 06:57 46.96724 1.65537 37963 ft 415 kts 202°
2026-05-04 06:58 46.91332 1.62525 37976 ft 415 kts 202°
2026-05-04 06:58 46.85978 1.59540 37972 ft 415 kts 202°
2026-05-04 06:59 46.80580 1.56538 37967 ft 415 kts 202°
2026-05-04 06:59 46.75183 1.53543 37967 ft 415 kts 202°
2026-05-04 07:01 46.53574 1.41614 37954 ft 417 kts 202°
2026-05-04 07:02 46.48151 1.38637 37963 ft 418 kts 202°
2026-05-04 07:02 46.42754 1.35660 37963 ft 418 kts 202°
2026-05-04 07:03 46.37314 1.32675 37966 ft 418 kts 202°
2026-05-04 07:03 46.31865 1.29710 37963 ft 418 kts 202°
2026-05-04 07:04 46.26445 1.26764 37957 ft 419 kts 202°
2026-05-04 07:04 46.20995 1.23805 37967 ft 419 kts 202°
2026-05-04 07:05 46.15539 1.20848 37958 ft 419 kts 202°
2026-05-04 07:05 46.10084 1.17898 37968 ft 419 kts 202°
2026-05-04 07:06 46.01938 1.13504 37966 ft 418 kts 202°
2026-05-04 07:07 45.96493 1.10575 37948 ft 418 kts 202°
2026-05-04 07:08 45.78195 0.98632 37966 ft 414 kts 221°
2026-05-04 07:09 45.76019 0.95933 37958 ft 414 kts 220°
2026-05-04 07:09 45.71630 0.90631 37968 ft 413 kts 219°
2026-05-04 07:10 45.67213 0.85359 37958 ft 413 kts 219°
2026-05-04 07:12 45.49504 0.64330 37965 ft 418 kts 219°
2026-05-04 07:12 45.45046 0.59062 37957 ft 420 kts 219°
2026-05-04 07:13 45.40539 0.53747 37950 ft 422 kts 219°
2026-05-04 07:13 45.36015 0.48425 37939 ft 422 kts 219°
2026-05-04 07:14 45.24759 0.35229 37945 ft 421 kts 219°
2026-05-04 07:15 45.20234 0.29945 37935 ft 421 kts 219°
2026-05-04 07:15 45.15703 0.24665 37928 ft 422 kts 219°
2026-05-04 07:16 45.11204 0.19434 37939 ft 422 kts 219°
2026-05-04 07:16 45.06663 0.14165 37939 ft 422 kts 219°
2026-05-04 07:17 45.02116 0.08898 37944 ft 423 kts 219°
2026-05-04 07:17 44.97562 0.03631 37933 ft 423 kts 219°
2026-05-04 07:18 44.93043 -0.01584 37963 ft 423 kts 219°
2026-05-04 07:18 44.88469 -0.06850 37949 ft 424 kts 219°
2026-05-04 07:19 44.83886 -0.12115 37932 ft 425 kts 219°
2026-05-04 07:19 44.79307 -0.17363 37936 ft 425 kts 219°
2026-05-04 07:20 44.74751 -0.22574 37937 ft 424 kts 219°
2026-05-04 07:20 44.70171 -0.27800 37942 ft 424 kts 219°
2026-05-04 07:22 44.51118 -0.47111 37941 ft 423 kts 214°
2026-05-04 07:23 44.46264 -0.51756 37933 ft 422 kts 215°
2026-05-04 07:23 44.41419 -0.56401 37925 ft 422 kts 215°
2026-05-04 07:24 44.36607 -0.61005 37944 ft 422 kts 215°
2026-05-04 07:24 44.31763 -0.65628 37937 ft 422 kts 215°
2026-05-04 07:26 44.12764 -0.84744 37947 ft 422 kts 217°
2026-05-04 07:27 44.08028 -0.89565 37946 ft 422 kts 217°
2026-05-04 07:27 44.03283 -0.94377 37946 ft 422 kts 217°
2026-05-04 07:28 43.98540 -0.99175 37951 ft 422 kts 217°
2026-05-04 07:28 43.93820 -1.03941 37954 ft 422 kts 217°
2026-05-04 07:29 43.89075 -1.08723 37957 ft 422 kts 217°
2026-05-04 07:29 43.84317 -1.13509 37962 ft 422 kts 217°
2026-05-04 07:30 43.79586 -1.18257 37960 ft 423 kts 217°
2026-05-04 07:30 43.74818 -1.23033 37797 ft 426 kts 217°
2026-05-04 07:31 43.72398 -1.25455 37294 ft 428 kts 217°
2026-05-04 07:31 43.69999 -1.27851 36694 ft 425 kts 217°
2026-05-04 07:33 43.53471 -1.44296 32050 ft 414 kts 216°
2026-05-04 07:33 43.51133 -1.46614 31338 ft 414 kts 216°
2026-05-04 07:33 43.48840 -1.48910 30614 ft 414 kts 218°
2026-05-04 07:33 43.46705 -1.51569 29833 ft 415 kts 226°
2026-05-04 07:34 43.44859 -1.54621 29086 ft 415 kts 234°
2026-05-04 07:34 43.43317 -1.57944 28532 ft 409 kts 235°
2026-05-04 07:34 43.41771 -1.61195 27968 ft 403 kts 234°
2026-05-04 07:34 43.40217 -1.64375 27403 ft 398 kts 234°
2026-05-04 07:35 43.38673 -1.67519 26880 ft 394 kts 234°
2026-05-04 07:35 43.37155 -1.70619 26353 ft 389 kts 234°
2026-05-04 07:35 43.35669 -1.73659 25808 ft 386 kts 234°
2026-05-04 07:35 43.34175 -1.76717 25161 ft 386 kts 234°
2026-05-04 07:36 43.32681 -1.79773 24627 ft 384 kts 234°
2026-05-04 07:36 43.31147 -1.82759 24075 ft 382 kts 230°
2026-05-04 07:38 43.17481 -1.99977 20089 ft 370 kts 221°
2026-05-04 07:38 43.15587 -2.02329 19573 ft 367 kts 221°
2026-05-04 07:38 43.13699 -2.04671 19055 ft 365 kts 221°
2026-05-04 07:38 43.11823 -2.06997 18544 ft 363 kts 221°
2026-05-04 07:39 43.09956 -2.09310 18010 ft 361 kts 221°
2026-05-04 07:39 43.08095 -2.11615 17261 ft 362 kts 221°
2026-05-04 07:39 43.06236 -2.13916 16726 ft 359 kts 221°
2026-05-04 07:39 43.04413 -2.16172 16196 ft 357 kts 221°
2026-05-04 07:40 43.02578 -2.18442 15685 ft 354 kts 221°
2026-05-04 07:40 43.00762 -2.20687 15189 ft 351 kts 221°
2026-05-04 07:40 42.98950 -2.22923 14673 ft 349 kts 221°
2026-05-04 07:40 42.97166 -2.25155 14182 ft 347 kts 223°
2026-05-04 07:41 42.95414 -2.27407 13686 ft 346 kts 223°
2026-05-04 07:41 42.93674 -2.29656 13148 ft 344 kts 223°
2026-05-04 07:41 42.91963 -2.31862 12664 ft 340 kts 223°
2026-05-04 07:41 42.90251 -2.34071 12166 ft 338 kts 223°
2026-05-04 07:42 42.88550 -2.36261 11704 ft 335 kts 224°
2026-05-04 07:42 42.86859 -2.38432 11222 ft 333 kts 224°
2026-05-04 07:42 42.85189 -2.40573 10901 ft 326 kts 224°
2026-05-04 07:42 42.83569 -2.42647 10769 ft 314 kts 224°
2026-05-04 07:43 42.82007 -2.44645 10638 ft 302 kts 224°
2026-05-04 07:43 42.80500 -2.46519 10519 ft 292 kts 222°
2026-05-04 07:43 42.78997 -2.48306 10386 ft 282 kts 222°
2026-05-04 07:43 42.77546 -2.50015 10302 ft 272 kts 221°
2026-05-04 07:44 42.76139 -2.51676 10196 ft 263 kts 222°
2026-05-04 07:44 42.74777 -2.53288 10105 ft 256 kts 221°
2026-05-04 07:44 42.73446 -2.54872 9969 ft 253 kts 222°
2026-05-04 07:44 42.72115 -2.56447 9681 ft 253 kts 222°
2026-05-04 07:45 42.70796 -2.58009 9411 ft 251 kts 222°
2026-05-04 07:45 42.69487 -2.59564 9160 ft 249 kts 222°
2026-05-04 07:45 42.68276 -2.61178 8882 ft 247 kts 236°
2026-05-04 07:45 42.67722 -2.63342 8672 ft 243 kts 261°
2026-05-04 07:46 42.67491 -2.65612 8388 ft 243 kts 259°
2026-05-04 07:46 42.67218 -2.67878 8126 ft 242 kts 260°
2026-05-04 07:46 42.66949 -2.70123 7876 ft 240 kts 260°
2026-05-04 07:46 42.66683 -2.72356 7609 ft 239 kts 260°
2026-05-04 07:47 42.66418 -2.74581 7358 ft 237 kts 260°
2026-05-04 07:47 42.66156 -2.76793 7123 ft 239 kts 260°
2026-05-04 07:47 42.65896 -2.79001 6845 ft 241 kts 260°
2026-05-04 07:49 42.69838 -2.90032 5395 ft 243 kts 24°
2026-05-04 07:49 42.71259 -2.88828 5127 ft 243 kts 32°
2026-05-04 07:49 42.72646 -2.87605 4858 ft 230 kts 32°
2026-05-04 07:50 42.73946 -2.86473 4632 ft 214 kts 30°
2026-05-04 07:50 42.75157 -2.85408 4427 ft 200 kts 33°
2026-05-04 07:50 42.76254 -2.84350 4306 ft 191 kts 34°
2026-05-04 07:50 42.77313 -2.83304 4078 ft 181 kts 34°
2026-05-04 07:51 42.78294 -2.82332 3823 ft 169 kts 34°
2026-05-04 07:51 42.79240 -2.81394 3602 ft 169 kts 34°
2026-05-04 07:51 42.80180 -2.80464 3384 ft 166 kts 35°
2026-05-04 07:51 42.81085 -2.79566 3167 ft 161 kts 34°
2026-05-04 07:52 42.81980 -2.78680 2957 ft 158 kts 35°
2026-05-04 07:52 42.82872 -2.77798 2731 ft 158 kts 36°
2026-05-04 07:52 42.83755 -2.76922 2502 ft 155 kts 36°
2026-05-04 07:52 42.84613 -2.76072 2281 ft 150 kts 36°
2026-05-04 07:53 42.85444 -2.75251 2083 ft 148 kts 36°
2026-05-04 07:54 42.88725 -2.72180 1679 ft 0 kts 333°
2026-05-04 07:55 42.88726 -2.72180 1677 ft 1 kts 333°
2026-05-04 07:55 42.88749 -2.72206 1683 ft 8 kts 309°
2026-05-04 07:55 42.88736 -2.72301 1677 ft 15 kts 227°
2026-05-04 07:56 42.88677 -2.72362 1682 ft 19 kts 213°
2026-05-04 07:56 42.88549 -2.72489 1678 ft 26 kts 216°
2026-05-04 07:56 42.88445 -2.72590 1677 ft 30 kts 215°
2026-05-04 07:56 42.88277 -2.72755 1671 ft 21 kts 219°
2026-05-04 07:57 42.88242 -2.72872 1679 ft 14 kts 314°
2026-05-04 07:57 42.88294 -2.72988 1673 ft 15 kts 282°
2026-05-04 07:57 42.88300 -2.73025 1675 ft 3 kts 294°
2026-05-04 07:57 42.88310 -2.73045 1673 ft 0 kts 304°